Regional Weather Roundup
Issued by NWS

Home | Current Version | Previous Version | Text Only | Print | Product List | Glossary On
Versions: 1 2 3 4 5 6 7 8 9 10 11 12 13 14 15 16 17 18 19 20 21 22 23 24 25 26 27 28 29 30 31 32 33 34 35 36 37 38 39 40 41 42 43 44 45 46 47 48 49 50
414
ASUS43 KMKX 091311
RWRWI

WISCONSIN REGIONAL WEATHER ROUNDUP
NATIONAL WEATHER SERVICE MILWAUKEE/SULLIVAN WI
700 AM CST TUE FEB 09 2016

NOTE: "FAIR" INDICATES FEW OR NO CLOUDS BELOW 12,000 FEET WITH NO
SIGNIFICANT WEATHER AND/OR OBSTRUCTIONS TO VISIBILITY.

WIZ001-002-006>008-014>016-023>028-091400-
NORTHWEST WISCONSIN

CITY           SKY/WX    TMP DP  RH WIND       PRES   REMARKS
SUPERIOR ARPT  CLOUDY     3  -5  70 N10G20    30.09R WCI -13
ASHLAND        CLOUDY     6   1  80 NW9       29.99R WCI  -8
HAYWARD        CLOUDY     3  -3  76 N8        29.96R WCI -10
SIREN          PTCLDY     2  -5  71 NW9       30.05R WCI -13
CUMBERLAND     CLOUDY     1  -6  71 NW13      29.98R WCI -16
RICE LAKE      CLOUDY     2  -4  75 NW8       30.01R WCI -12
CHETEK         CLOUDY     2  -4  75 NW6       29.99R WCI  -9
LADYSMITH      CLOUDY     5  -1  77 NW13G18   29.94R WCI -12
EAU CLAIRE     PTCLDY     4  -5  66 NW10      29.99R WCI -11
MENOMONIE      CLEAR      5  -3  69 NW13      30.02R WCI -12
NEW RICHMOND   CLOUDY     5  -3  69 NW14      30.04R WCI -13
OSCEOLA        PTCLDY     5  -3  70 NW14      30.09R WCI -13
$$

WIZ003>005-009-010-017-018-091400-
NORTH CENTRAL WISCONSIN

CITY           SKY/WX    TMP DP  RH WIND       PRES   REMARKS
MANITOWISH WTR FLURRIES   9   4  82 N10       29.81R WCI  -6
ARBOR VITAE    CLOUDY    11   6  79 N17G23    29.79S HAZE    WCI  -6
WOODRUFF       CLOUDY    11   6  79 N17G23    29.79S HAZE    WCI  -6
RHINELANDER    LGT SNOW  10   4  76 N9        29.77S WCI  -3
EAGLE RIVER    LGT SNOW   9   3  77 N12       29.77R WCI  -6
LAND O LAKES   LGT SNOW  10   5  81 N15       29.78R WCI  -7
PHILLIPS       CLOUDY     6   1  81 NW10G18   29.85R WCI  -9
TOMAHAWK       LGT SNOW   8   4  82 NW8       29.80S WCI  -4
MEDFORD        LGT SNOW   6   1  82 NW13      29.83R WCI -11
MERRILL        LGT SNOW   9   5  81 NW9       29.81S WCI  -4
$$

WIZ029-030-035-036-043>047-091400-
CENTRAL WISCONSIN

CITY           SKY/WX    TMP DP  RH WIND       PRES   REMARKS
WAUSAU         LGT SNOW  10   5  80 NW9       29.80S WCI  -3
MOSINEE        LGT SNOW   9   5  85 NW14G22   29.82S WCI  -8
MARSHFIELD     LGT SNOW   6  -1  73 NW20G29   29.84S WCI -14
STEVENS POINT  FLURRIES   7   1  79 NW10      29.83S WCI  -8
WAUPACA        PTCLDY    12   5  71 W10       29.83R WCI  -1
WAUTOMA        FLURRIES   9   2  73 NW14      29.86R WCI  -7
WISC RAPIDS    LGT SNOW   8   1  73 NW16      29.87R WCI -10
CAMP DOUGLAS   FLURRIES   9   5  85 NW17G24   29.89R WCI -10
$$

WIZ011>013-019>022-031-037>040-048>050-091400-
NORTHEAST WISCONSIN

CITY           SKY/WX    TMP DP  RH WIND       PRES   REMARKS
ANTIGO         LGT SNOW  10   6  84 N15       29.76R WCI  -7
SHAWANO        FLURRIES  14   8  78 W5        29.81R WCI   6
OCONTO         CLOUDY    14   5  67 NW10      29.80R WCI   1
STURGEON BAY   CLOUDY    14   3  62 NW16G22   29.78R WCI  -2
GREEN BAY      CLOUDY    13   8  81 NW9       29.80R WCI   1
MANITOWOC      FLURRIES  12   8  84 NW13      29.77R WCI  -3
APPLETON       FLURRIES  12   5  73 NW15      29.78R WCI  -4
CLINTONVILLE   CLOUDY    12   5  73 NW10      29.81R WCI  -1
OSHKOSH        MOCLDY    10   3  73 NW14      29.81R WCI  -6
$$

WIZ032>034-041-042-053>061-091400-
SOUTHWEST WISCONSIN

CITY           SKY/WX    TMP DP  RH WIND       PRES   REMARKS
LA CROSSE      CLOUDY     8   0  69 NW20      29.98R WCI -11
SPARTA         FLURRIES   8   2  76 NW8       29.95R WCI  -4
VIROQUA        CLOUDY     6   0  78 NW16      29.90R WCI -12
BOSCOBEL       FLURRIES  10   1  67 NW12      29.95R WCI  -5
PRAIRIE DU CHI CLOUDY    10   0  63 NW14G20   29.97R WCI  -6
PLATTEVILLE    CLOUDY     9   3  76 NW15      29.88R WCI  -7
$$

WIZ056-057-062-063-064-067-068-091400-
SOUTH CENTRAL WISCONSIN

CITY           SKY/WX    TMP DP  RH WIND       PRES   REMARKS
REEDSBURG      FLURRIES   8   2  77 NW14G20   29.88R WCI  -8
BARABOO/DELLS  LGT SNOW   8   1  73 NW15      29.86S WCI  -9
LONE ROCK      LGT SNOW  10   1  67 NW12      29.92R WCI  -5
MINERAL POINT  LGT SNOW  10   5  79 NW14G21   29.86R WCI  -5
MADISON        FLURRIES   9   2  73 NW16G23   29.85R WCI  -8
MIDDLETON      CLOUDY    11   4  74 NW17G23   29.85S WCI  -6
WATERTOWN      FLURRIES  11   6  83 NW13G18   29.82R WCI  -4
MONROE         LGT SNOW  12   5  73 NW10G20   29.83R WCI  -1
JANESVILLE     LGT SNOW  12   9  85 NW15      29.83R WCI  -4
$$

WIZ051-052-058>065-066-070>072-091400-
SOUTHEAST WISCONSIN

CITY           SKY/WX    TMP DP  RH WIND       PRES   REMARKS
MILWAUKEE      MOCLDY    13   6  74 NW16      29.79R WCI  -3
WAUKESHA       PTCLDY    10   5  79 NW14      29.79R WCI  -5
MILWAUKEE/TIMM CLEAR     12   3  67 NW10G16   29.80R WCI  -1
RACINE         CLOUDY    14   6  70 NW14      29.80R WCI  -1
BURLINGTON     LGT SNOW  11   6  80 NW14G20   29.80R WCI  -5
KENOSHA        FLURRIES  14   8  77 NW12      29.78R WCI   0
FOND DU LAC    PTCLDY    11   4  73 NW16      29.81R WCI  -6
SHEBOYGAN      MOCLDY    12   5  73 NW12      29.77R WCI  -2
WEST BEND      CLEAR     10   5  79 CALM      29.78S
JUNEAU         LGT SNOW  10   4  80 NW13G18   29.82R WCI  -6
$$

LSZ147-162-091400-
LAKE SUPERIOR

STATION/POSITION TIME  TEMP    WIND        PRES    WAVE
                       AIR SEA DIR/SP/G            HT/PER
                 (UTC) (F)     (DEG/KT/KT) (MB)    (FT/S)
DEVILS ISLAND    1200   10     350/ 27/ 33 1017.1R
PORT WING        1240   10     340/ 12/ 19 1017.3R
SAXON HARBOR     1200   14                 1013.5S
$$

LMZ867-665-643>646-091400-
LAKE MICHIGAN

STATION/POSITION TIME  TEMP    WIND        PRES    WAVE
                       AIR SEA DIR/SP/G            HT/PER
                 (UTC) (F)     (DEG/KT/KT) (MB)    (FT/S)
CHAMBERS ISLAND  1200   15     310/ 17/ 22 1007.8R
ALGOMA LAKESHORE 1211          320/ 14/ 20   N/A
KEWAUNEE LAKESHO 1200   15     320/ 10/ 19 1006.7R
SHEBOYGAN LAKESH 1300   14     310/ 13/ 15 1009.6R
PORT WASHINGTON  1200   14     300/ 10/ 16 1009.5R
MILWAUKEE LAKESH 1210   15     320/ 11/ 14   N/A
KENOSHA   LAKESH 1200   16     320/ 14/ 20 1008.1R
$$

TC  - TEMPERATURE IN CELSIUS
VSB - VISIBILITY IN STATUTE MILES
WCI - WIND CHILL INDEX
HX  - HEAT INDEX





USA.gov is the U.S. government's official web portal to all federal, state and local government web resources and services.